Flag for Switzerland Weather past 2 weeks in Meyrin, Geneva, Switzerland

Now
52 °F

Fog.


Feels Like: 52 °F
Forecast: 52 / 65 °F
Wind: 1 mph from North

Location: Geneva Cointrin Airport

Current Time: Oct 20, 2014 at 6:35:36 AM

Latest Report: Oct 20, 2014 at 5:20 AM


Visibility: N/A

Pressure: 30.21 "Hg

Humidity: 100%

Dew point: 52 °F

Location of MeyrinLocation

Historic Weather in Meyrin — Graph

°F

Meyrin temperature yesterday

Maximum temperature yesterday: 75 °F (at 3:20 PM)
Minimum temperature yesterday: 50 °F (at 5:50 AM)
Average temperature yesterday: 60 °F

Past Weeks' High & Low Weather Summary

 TemperatureHumidityPressure
High77 °F (Oct 9, 1:50 PM)100% (Oct 5, 5:20 AM)30.30 "Hg (Oct 5, 5:20 AM)
Low48 °F (Oct 14, 4:50 AM)39% (Oct 9, 1:50 PM)29.80 "Hg (Oct 8, 6:50 PM)
Average60 °F88%29.96 "Hg
* Reported Oct 5 5:20 AM — Oct 20 5:20 AM, Meyrin, Weather by CustomWeather, © 2014

Note: Actual official high and low records may vary slightly from our data, if they occured in-between our weather recording intervals... More about our weather records

Advertising

Meyrin weather history for previous 24 hours

 ConditionsComfort  
Time TempWeatherWind HumidityBarometerVisibility
5:20 AM
Oct 20
52 °FFog.1 mph100%30.21 "HgN/A
4:50 AM52 °FFog.1 mph100%30.24 "HgN/A
4:20 AM54 °FFog.1 mph100%30.24 "HgN/A
3:50 AM54 °FClear.2 mph100%30.24 "Hg10 mi
2:50 AM52 °FClear.1 mph100%30.24 "Hg10 mi
2:20 AM54 °FClear.1 mph100%30.24 "Hg10 mi
1:50 AM54 °FClear.2 mph100%30.24 "Hg10 mi
1:20 AM54 °FClear.1 mph100%30.27 "Hg10 mi
12:50 AM54 °FClear.1 mph100%30.24 "Hg10 mi
12:20 AM55 °FClear.2 mph94%30.24 "Hg10 mi
11:50 PM
Oct 19
55 °FClear.1 mph100%30.24 "Hg10 mi
11:20 PM55 °FClear.1 mph100%30.24 "Hg10 mi
10:50 PM57 °FClear.1 mph94%30.27 "Hg10 mi
10:20 PM59 °FClear.3 mph88%30.24 "Hg10 mi
9:50 PM59 °FClear.1 mph94%30.24 "Hg10 mi
9:20 PM59 °FClear.1 mph94%30.24 "Hg10 mi
8:50 PM63 °FClear.2 mph83%30.24 "Hg10 mi
8:20 PM61 °FClear.1 mph88%30.24 "Hg10 mi
7:50 PM61 °FClear.1 mph94%30.24 "Hg10 mi
7:20 PM63 °FSunny.1 mph88%30.24 "Hg10 mi
6:50 PM70 °FPassing clouds.5 mph64%30.24 "HgN/A
6:20 PM70 °FSunny.6 mph64%30.21 "Hg10 mi
5:50 PM72 °FSunny.7 mph57%30.21 "Hg10 mi
5:20 PM73 °FSunny.10 mph53%30.21 "Hg10 mi
4:50 PM75 °FSunny.14 mph47%30.21 "Hg10 mi
4:20 PM75 °FSunny.14 mph47%30.21 "Hg10 mi
3:50 PM75 °FSunny.14 mph47%30.24 "Hg10 mi
3:20 PM75 °FPassing clouds.9 mph50%30.24 "HgN/A
2:50 PM73 °FPassing clouds.8 mph57%30.24 "HgN/A
2:20 PM73 °FPassing clouds.6 mph57%30.24 "HgN/A
1:50 PM72 °FPassing clouds.5 mph61%30.27 "HgN/A
1:20 PM70 °FPassing clouds.6 mph64%30.27 "HgN/A
12:50 PM70 °FPassing clouds.6 mph60%30.27 "HgN/A
12:20 PM68 °FSunny.3 mph64%30.30 "Hg10 mi
11:50 AM64 °FPassing clouds.3 mph73%30.27 "HgN/A
11:20 AM63 °FSunny.2 mph83%30.27 "Hg10 mi
10:50 AM61 °FSunny.2 mph88%30.30 "Hg10 mi
10:20 AM57 °FSunny.2 mph94%30.30 "Hg10 mi
9:50 AM57 °FLight fog.1 mph94%30.27 "HgN/A
9:20 AM54 °FLight fog.1 mph100%30.27 "HgN/A
8:50 AM50 °FPassing clouds.3 mph100%30.27 "HgN/A
8:20 AM50 °FPassing clouds.1 mph100%30.27 "HgN/A
7:50 AM50 °FFog.1 mph100%30.27 "Hg5 mi
7:20 AM50 °FPassing clouds.3 mph100%30.27 "HgN/A
6:50 AM50 °FPassing clouds.2 mph100%30.27 "Hg6 mi
6:20 AM50 °FPassing clouds.1 mph100%30.27 "HgN/A
Weather by CustomWeather, © 2014

See weather overviewHow to use our weather pages